EA3IR Weather Reports


time (UTC)temp
C
wind
direction
speed
KPH
gust
KPH
rain 1hr
cm
rain 24hr
cm
rain mn
cm
humidity
%
barometer
mb
20260504005019 16 246 1.6 4.8 0.00 0.00 0.00 83 1012.9
20260504004017 16 157 1.6 8.0 0.00 0.00 0.00 83 1012.9
20260504003518 15 149 1.6 6.4 0.00 0.00 0.00 84 1012.8
20260504002517 15 140 1.6 4.8 0.00 0.00 0.00 84 1012.9
20260504002019 15 140 1.6 3.2 0.00 0.00 0.00 84 1012.9
20260504001517 15 141 1.6 3.2 0.00 0.00 0.00 84 1012.9
20260504001018 15 141 0.0 3.2 0.00 0.00 0.00 84 1013.0
20260504000517 15 140 0.0 3.2 0.00 0.00 0.00 84 1013.1
20260504000018 16 141 0.0 1.6 0.00 0.00 0.00 84 1013.1
20260503234518 16 140 0.0 4.8 0.00 0.00 0.00 84 1013.3
20260503234017 16 140 0.0 4.8 0.00 0.00 0.00 83 1013.3
20260503233517 16 140 0.0 1.6 0.00 0.00 0.00 83 1013.3
20260503233019 16 141 1.6 1.6 0.00 0.00 0.00 83 1013.3
20260503232519 16 141 1.6 3.2 0.00 0.00 0.00 83 1013.3
20260503232018 16 140 1.6 4.8 0.00 0.00 0.00 83 1013.3
20260503231518 16 141 1.6 3.2 0.00 0.00 0.00 82 1013.3
20260503231018 16 141 0.0 4.8 0.00 0.00 0.00 82 1013.4
20260503230518 16 141 0.0 3.2 0.00 0.00 0.00 82 1013.5
20260503230019 16 140 0.0 1.6 0.00 0.00 0.00 82 1013.6
20260503225517 16 141 0.0 1.6 0.00 0.00 0.00 82 1013.7
20260503225018 16 140 0.0 3.2 0.00 0.00 0.00 82 1013.8
20260503224518 16 141 0.0 4.8 0.00 0.00 0.00 82 1013.8
20260503224018 16 141 0.0 3.2 0.00 0.00 0.00 82 1013.9
20260503223518 16 141 0.0 1.6 0.00 0.00 0.00 82 1013.9
20260503223017 16 141 1.6 4.8 0.00 0.00 0.00 82 1014.0
20260503222517 16 140 0.0 3.2 0.00 0.00 0.00 81 1014.1
20260503221518 16 141 1.6 3.2 0.00 0.00 0.00 81 1014.2
20260503221017 16 140 1.6 3.2 0.00 0.00 0.00 81 1014.2
20260503220517 16 141 1.6 3.2 0.00 0.00 0.00 81 1014.3
20260503220021 16 141 1.6 1.6 0.00 0.00 0.00 81 1014.3
20260503215517 16 141 1.6 4.8 0.00 0.00 0.00 80 1014.4
20260503215017 16 182 1.6 4.8 0.00 0.00 0.00 80 1014.3
20260503214518 16 111 1.6 3.2 0.00 0.00 0.00 80 1014.3
20260503214018 16 113 1.6 4.8 0.00 0.00 0.00 80 1014.2
20260503213519 16 113 1.6 3.2 0.00 0.00 0.00 79 1014.2
20260503213018 16 181 3.2 9.7 0.00 0.00 0.00 79 1014.4
20260503212518 16 162 1.6 6.4 0.00 0.00 0.00 78 1014.4
20260503212017 16 161 3.2 8.0 0.00 0.00 0.00 78 1014.4
20260503211518 16 176 3.2 9.7 0.00 0.00 0.00 77 1014.4
20260503210517 16 174 1.6 6.4 0.00 0.00 0.00 80 1014.5
20260503210018 16 159 3.2 4.8 0.00 0.00 0.00 81 1014.5
20260503205517 16 114 3.2 8.0 0.00 0.00 0.00 82 1014.6
20260503205017 16 171 3.2 8.0 0.00 0.00 0.00 82 1014.6
20260503204019 16 171 3.2 6.4 0.00 0.00 0.00 82 1014.7
20260503203517 16 154 3.2 11.3 0.00 0.00 0.00 82 1014.7
20260503202517 16 179 3.2 6.4 0.00 0.00 0.00 82 1014.8
20260503202018 16 175 3.2 9.7 0.00 0.00 0.00 82 1014.8
20260503201517 16 168 3.2 9.7 0.00 0.00 0.00 82 1014.8
20260503201018 16 139 3.2 8.0 0.00 0.00 0.00 82 1014.6
20260503200517 16 166 3.2 11.3 0.00 0.00 0.00 82 1014.5
20260503200018 16 168 4.8 9.7 0.00 0.00 0.00 81 1014.3
20260503195017 16 151 3.2 8.0 0.00 0.00 0.00 81 1014.2
20260503194518 17 135 3.2 9.7 0.00 0.00 0.00 81 1014.1
20260503194019 17 150 3.2 9.7 0.00 0.00 0.00 80 1014.0
20260503193518 17 131 3.2 8.0 0.00 0.00 0.00 80 1013.9
20260503193019 17 170 3.2 9.7 0.00 0.00 0.00 79 1013.9
20260503192518 17 157 3.2 9.7 0.00 0.00 0.00 79 1013.9
20260503191019 17 118 3.2 6.4 0.00 0.00 0.00 78 1013.8
20260503190518 17 149 3.2 9.7 0.00 0.00 0.00 77 1013.8
20260503190018 17 158 1.6 6.4 0.00 0.00 0.00 77 1013.8
20260503185517 17 153 3.2 6.4 0.00 0.00 0.00 77 1013.8
20260503185018 17 160 3.2 9.7 0.00 0.00 0.00 76 1013.8
20260503184517 17 139 3.2 8.0 0.00 0.00 0.00 77 1013.7
20260503184018 17 155 3.2 8.0 0.00 0.00 0.00 77 1013.6
20260503183518 17 137 4.8 9.7 0.00 0.00 0.00 77 1013.6
20260503183018 17 150 4.8 9.7 0.00 0.00 0.00 77 1013.6
20260503182517 17 134 3.2 6.4 0.00 0.00 0.00 77 1013.5
20260503182017 17 147 4.8 9.7 0.00 0.00 0.00 76 1013.5
20260503181518 17 153 4.8 12.9 0.00 0.00 0.00 76 1013.6
20260503181019 17 153 3.2 8.0 0.00 0.00 0.00 76 1013.7
20260503180517 17 149 4.8 11.3 0.00 0.00 0.00 76 1013.7
20260503180018 17 140 4.8 11.3 0.00 0.00 0.00 76 1013.6
20260503175518 18 142 3.2 11.3 0.00 0.00 0.00 75 1013.6
20260503175018 18 142 3.2 8.0 0.00 0.00 0.00 74 1013.5
20260503174518 18 130 4.8 9.7 0.00 0.00 0.00 73 1013.6
20260503174019 18 152 4.8 12.9 0.00 0.00 0.00 72 1013.6
20260503173518 18 143 4.8 9.7 0.00 0.00 0.00 72 1013.6
20260503172517 18 140 4.8 14.5 0.00 0.00 0.00 73 1013.7
20260503172018 18 164 4.8 12.9 0.00 0.00 0.00 73 1013.7
20260503171517 18 164 6.4 11.3 0.00 0.00 0.00 73 1013.7
20260503171018 18 168 6.4 14.5 0.00 0.00 0.00 72 1013.8
20260503170517 18 173 6.4 12.9 0.00 0.00 0.00 72 1013.8
20260503150517 20 118 4.8 12.9 0.00 0.00 0.00 67 1014.1
20260503131017 20 150 4.8 14.5 0.00 0.00 0.00 61 1015.0
20260503130517 20 127 4.8 12.9 0.00 0.00 0.00 62 1014.9
20260503110518 20 164 4.8 11.3 0.00 0.00 0.00 64 1016.0
20260503081517 18 169 4.8 6.4 0.00 0.00 0.00 73 1016.1
20260503081017 18 172 6.4 11.3 0.00 0.00 0.00 74 1016.0
20260503072517 17 163 4.8 9.7 0.00 0.00 0.00 76 1016.4
20260503072017 17 159 3.2 9.7 0.00 0.00 0.00 77 1016.3
20260503071517 17 175 3.2 11.3 0.00 0.00 0.00 78 1016.3
20260503071017 17 143 3.2 6.4 0.00 0.00 0.00 78 1016.3
20260503070517 17 169 3.2 8.0 0.00 0.00 0.00 78 1016.3
20260503054517 15 176 4.8 9.7 0.00 0.00 0.00 85 1015.9
20260503054018 15 172 3.2 11.3 0.00 0.00 0.00 85 1015.8
20260503053518 15 160 4.8 12.9 0.00 0.00 0.00 85 1015.8
20260503053018 15 181 4.8 11.3 0.00 0.00 0.00 85 1015.7
20260503052517 15 166 4.8 12.9 0.00 0.00 0.00 85 1015.6
20260503052017 15 160 3.2 12.9 0.00 0.00 0.00 86 1015.6
20260503051517 15 170 3.2 8.0 0.00 0.00 0.00 85 1015.6
20260503051018 15 188 3.2 11.3 0.00 0.00 0.00 85 1015.5
20260503050518 15 173 3.2 4.8 0.00 0.00 0.00 85 1015.6
20260503050018 15 176 3.2 9.7 0.00 0.00 0.00 85 1015.5
20260503045517 15 167 1.6 12.9 0.00 0.00 0.00 85 1015.5
20260503045017 15 142 3.2 6.4 0.00 0.00 0.00 85 1015.7
20260503044517 15 149 3.2 8.0 0.00 0.00 0.00 85 1015.6
20260503044017 15 188 3.2 6.4 0.00 0.00 0.00 85 1015.7
20260503043516 15 174 3.2 11.3 0.00 0.00 0.00 85 1015.8
20260503043017 15 169 3.2 9.7 0.00 0.00 0.00 85 1015.8
20260503042517 15 159 3.2 9.7 0.00 0.00 0.00 85 1015.9
20260503041517 15 167 3.2 8.0 0.00 0.00 0.00 84 1016.0
20260503040517 15 157 4.8 8.0 0.00 0.00 0.00 85 1016.2
20260503040017 15 162 3.2 11.3 0.00 0.00 0.00 85 1016.1
20260503035517 15 160 3.2 9.7 0.00 0.00 0.00 85 1016.2
20260503034517 15 178 3.2 6.4 0.00 0.00 0.00 85 1016.4
20260503034017 15 179 3.2 9.7 0.00 0.00 0.00 85 1016.3
20260503033517 15 158 3.2 8.0 0.00 0.00 0.00 85 1016.2
20260503033018 15 158 3.2 6.4 0.00 0.00 0.00 85 1016.3
20260503032518 15 176 4.8 11.3 0.00 0.00 0.00 85 1016.2
20260503032017 15 167 4.8 9.7 0.00 0.00 0.00 84 1016.3
20260503031517 15 170 4.8 12.9 0.00 0.00 0.00 85 1016.3
20260503030517 15 171 4.8 9.7 0.00 0.00 0.00 84 1016.4
20260503030017 16 167 4.8 11.3 0.00 0.00 0.00 84 1016.5
20260503025518 16 163 4.8 11.3 0.00 0.00 0.00 84 1016.4
20260503024517 16 179 4.8 12.9 0.00 0.00 0.00 84 1016.6
20260503024018 16 175 4.8 14.5 0.00 0.00 0.00 84 1016.6
20260503023517 16 181 4.8 9.7 0.00 0.00 0.00 84 1016.6
20260503023017 16 184 4.8 11.3 0.00 0.00 0.00 84 1016.6
20260503022017 16 175 3.2 11.3 0.00 0.00 0.00 85 1016.6
20260503021517 16 166 3.2 6.4 0.00 0.00 0.00 85 1016.6
20260503021017 16 197 4.8 8.0 0.00 0.00 0.00 85 1016.8
20260503020017 16 174 4.8 11.3 0.00 0.00 0.00 85 1016.7
20260503015017 16 165 3.2 12.9 0.00 0.00 0.00 85 1016.6
20260503014517 16 169 3.2 12.9 0.00 0.00 0.00 84 1016.7
20260503014017 16 153 3.2 8.0 0.00 0.00 0.00 84 1016.7
20260503013517 16 149 3.2 9.7 0.00 0.00 0.00 84 1016.8
20260503012517 16 141 3.2 9.7 0.00 0.00 0.00 84 1016.9
20260503012017 16 159 4.8 8.0 0.00 0.00 0.00 84 1017.0
20260503011518 16 156 3.2 8.0 0.00 0.00 0.00 84 1017.0
20260503011018 16 157 3.2 9.7 0.00 0.00 0.00 84 1017.0
20260503010516 16 164 3.2 9.7 0.00 0.00 0.00 84 1017.1
20260503005517 16 173 3.2 9.7 0.00 0.00 0.00 84 1017.3